Regional Weather Roundup
Issued by NWS

Home | Current Version | Previous Version | Graphics & Text | Print | Product List | Glossary On
Versions: 1 2 3 4 5 6 7 8 9 10 11 12 13 14 15 16 17 18 19 20 21 22 23 24 25 26 27 28 29 30 31 32 33 34 35 36 37 38 39 40 41 42 43 44 45 46 47 48 49 50
657
ASUS44 KJAN 311803
RWRMS

MISSISSIPPI HOURLY WEATHER ROUNDUP
NATIONAL WEATHER SERVICE JACKSON MS
100 PM CDT FRI OCT 31 2014

NOTE: "FAIR: INDICATES FEW OR NO CLOUDS BELOW 12,000 FEET WITH NO
SIGNIFICANT WEATHER AND/OR OBSTRUCTIONS TO VISIBILITY.

MSZ001>002-007>008-010>013-018>021-025>028-034>036-311900-
NORTHWEST MISSISSIPPI

CITY           SKY/WX    TMP DP  RH WIND       PRES   REMARKS
CLARKSDALE     CLOUDY    57  48  72 N17G28    30.16S
CLEVELAND      MOCLDY    61  49  65 N18G24    30.13S
GREENWOOD      MOSUNNY   65  48  54 N16G23    30.09S
6HR MIN TEMP:  46; 6HR MAX TEMP:  65;

GREENVILLE     MOSUNNY   64  46  52 N23G30    30.13R
6HR MIN TEMP:  53; 6HR MAX TEMP:  65;

GRENADA        CLOUDY    61  46  59 N17G23    30.09R
OLIVE BRANCH   CLOUDY    54  48  82 N16G24    30.13S
OXFORD         CLOUDY    59  46  63 N17G23    30.11S
TUNICA         CLOUDY    55  45  67 N17G25    30.16S
$$

MSZ003>006-009-014>017-022>024-029>033-037>039-311900-
NORTHEAST MISSISSIPPI

CITY           SKY/WX    TMP DP  RH WIND       PRES   REMARKS
COLUMBUS AFB   SUNNY     66  47  49 N14G21    30.01F
6HR MIN TEMP:  42; 6HR MAX TEMP:  66; 6HR PCP: TRACE;

CORINTH        CLOUDY    57  46  67 N17G23    30.05S
GOLDN TRIANGLE MOSUNNY   68  46  45 N16       30.00F
STARKVILLE     MOCLDY    63  46  55 NW8G16    30.02S
TUPELO         CLOUDY    62  46  55 N14G25    30.03F
6HR MIN TEMP:  44; 6HR MAX TEMP:  65;

$$

MSZ040-058-311900-
CENTRAL MISSISSIPPI

CITY           SKY/WX    TMP DP  RH WIND       PRES   REMARKS
JACKSON INTL   MOSUNNY   68  47  46 NW13G23   30.05F
6HR MIN TEMP:  45; 6HR MAX TEMP:  69;

JACKSON HAWKNS MOSUNNY   67  47  48 NW13G22   30.06F
6HR MIN TEMP:  51; 6HR MAX TEMP:  67;

MERIDIAN KEY   MOSUNNY   71  46  40 N14       29.97F
6HR MIN TEMP:  40; 6HR MAX TEMP:  71;

MERIDIAN NAS   MOSUNNY   70  46  42 NW18G28   29.98F
6HR MIN TEMP:  43; 6HR MAX TEMP:  71;

RAYMOND        FAIR      66  63  88 N10G17    30.07F
VICKSBURG      SUNNY     68  47  46 N15G24    30.10F
6HR MIN TEMP:  42; 6HR MAX TEMP:  69;

$$

MSZ059>079-311900-
SOUTH MISSISSIPPI

CITY           SKY/WX    TMP DP  RH WIND       PRES   REMARKS
BROOKHAVEN     FAIR      68  46  45 N10G21    30.07F
COLUMBIA         N/A     70  46  43 MISG      30.01F
HATTIESBURG    SUNNY     72  46  39 NW13G23   30.01F
6HR MIN TEMP:  43; 6HR MAX TEMP:  72;

MCCOMB         SUNNY     69  44  40 NW15G25   30.05F
6HR MIN TEMP:  45; 6HR MAX TEMP:  71;

NATCHEZ        SUNNY     68  46  45 NW13G20   30.10F
6HR MIN TEMP:  45; 6HR MAX TEMP:  68;

PINE BELT      MOSUNNY   72  45  37 NW12G23   30.02F
6HR MIN TEMP:  45; 6HR MAX TEMP:  72;

$$

MSZ080>082-311900-
COASTAL MISSISSIPPI

CITY           SKY/WX    TMP DP  RH WIND       PRES   REMARKS
BAY ST LOUIS   SUNNY     75  39  27 NW12      30.01F
BILOXI         SUNNY     77  47  34 NW10      29.98F
6HR MIN TEMP:  51; 6HR MAX TEMP:  77;

PASCAGOULA     SUNNY     75  45  34 VRB6      29.97F
6HR MIN TEMP:  42; 6HR MAX TEMP:  75;

GULFPORT       MOSUNNY   75  45  34 W16G24    29.98F
6HR MIN TEMP:  46; 6HR MAX TEMP:  75;

$$



USA.gov is the U.S. government's official web portal to all federal, state and local government web resources and services.